Location: Isles
(48.9125°N, 2.8272°E)
Time: 14:30:40
(UTC+00:00)

Cosmos 1408 - Pass Details

Date: 03 February 2023
Orbit: 432 x 463 km, 82.6° (Epoch: 29 March)

Event Time Altitude Azimuth Distance (km) Brightness Sun altitude
Rises 17:41:17 0° 185° (S) 2,406 6.4 -8.9°
Reaches altitude 10° 17:43:18 10° 184° (S) 1,548 5.4 -9.2°
Maximum altitude 17:46:40 78° 98° (E) 459 2.3 -9.8°
Drops below altitude 10° 17:50:07 10° 12° (NNE) 1,585 4.9 -10.3°
Sets 17:52:12 0° 11° (N) 2,471 5.9 -10.7°
